Weather History for Gulf Shores, AL

Change the Weather History Date:

Wednesday, November 7, 2012

  Actual Average (KPNS) Record (KPNS)
Temperature  
Mean Temperature 54 °F 63 °F  
Max Temperature 64 °F 73 °F 83 °F (1975)
Min Temperature 44 °F 54 °F 30 °F (1959)
Degree Days  
Heating Degree Days 11 4  
Month to date heating degree days 24  
Since 1 July heating degree days 62  
Cooling Degree Days 0 2  
Month to date cooling degree days 17  
Year to date cooling degree days 2567  
Growing Degree Days 4 (Base 50)    
Moisture  
Dew Point 42 °F    
Average Humidity 61    
Maximum Humidity 100    
Minimum Humidity 32    
Precipitation  
Precipitation 0.00 in 0.16 in 4.09 in (1885)
Month to date precipitation 1.15  
Year to date precipitation 57.14  
Snow  
Snow 0.00 in 0.00 in 0.00 in (2002)
Month to date snowfall 0.0  
Since 1 July snowfall 0.0  
Snow Depth -    
Sea Level Pressure  
Sea Level Pressure 30.05 in    
Wind  
Wind Speed 5 mph (NW)    
Max Wind Speed 15 mph    
Max Gust Speed 23 mph    
Visibility 10 miles    
Events      
T = Trace of Precipitation, MM = Missing Value Source: NWS Daily Summary

Daily Weather History Graph

Daily Weather History Graph

Search for Another Location

Airport:

Trip Planner

Search our weather history database for the weather conditions in past years. The results will help you decide how hot, cold, wet, or windy it might be!

Date:

Astronomy

Nov. 07, 2012 Rise Set
Actual Time 6:10 AM CST 4:58 PM CST
Civil Twilight 5:45 AM CST 5:23 PM CST
Nautical Twilight 5:16 AM CST 5:52 PM CST
Astronomical Twilight 4:48 AM CST 6:20 PM CST
Moon No Moon Rise 12:41 PM CST (11/7)
Length of Visible Light 11h 38m
Length of Day
10h 48m
Last Quarter, 43% of the Moon is Illuminated
Nov 7
Last Quarter
Nov 13
New
Nov 20
First Quarter
Nov 28
Full
Dec 6
Last Quarter

Hourly Weather History & Observations

Time (CST) Temp. Windchill Dew Point Humidity Pressure Visibility Wind Dir Wind Speed Gust Speed Precip Events Conditions
12:15 AM 44.6 °F - 42.8 °F 93% 30.04 in 5.0 mi Calm Calm - N/A   Clear
12:35 AM 46.4 °F - 46.4 °F 100% 30.04 in 10.0 mi Calm Calm - N/A   Clear
12:55 AM 48.2 °F - 44.6 °F 87% 30.05 in 10.0 mi NW 3.5 mph - N/A   Clear
1:15 AM 48.2 °F - 44.6 °F 87% 30.05 in 10.0 mi NW 4.6 mph - N/A   Clear
1:35 AM 48.2 °F - 44.6 °F 87% 30.05 in 10.0 mi NW 4.6 mph - N/A   Clear
1:55 AM 48.2 °F - 44.6 °F 87% 30.05 in 10.0 mi NW 3.5 mph - N/A   Clear
2:15 AM 46.4 °F 45.2 °F 44.6 °F 93% 30.05 in 10.0 mi WNW 3.5 mph - N/A   Clear
7:15 AM 50.0 °F - 50.0 °F 100% 30.07 in 10.0 mi WNW 4.6 mph - N/A   Clear
7:35 AM 51.8 °F - 50.0 °F 94% 30.07 in 10.0 mi NW 4.6 mph - N/A   Clear
7:55 AM 53.6 °F - 50.0 °F 88% 30.07 in 10.0 mi NW 3.5 mph - N/A   Clear
8:15 AM 55.4 °F - 50.0 °F 82% 30.07 in 10.0 mi West 6.9 mph - N/A   Clear
8:35 AM 55.4 °F - 48.2 °F 77% 30.08 in 10.0 mi WNW 5.8 mph - N/A   Clear
8:55 AM 59.0 °F - 48.2 °F 67% 30.08 in 10.0 mi NW 6.9 mph - N/A   Clear
9:15 AM 59.0 °F - 46.4 °F 63% 30.08 in 10.0 mi West 9.2 mph - N/A   Clear
9:35 AM 60.8 °F - 46.4 °F 59% 30.07 in 10.0 mi NW 8.1 mph - N/A   Clear
9:55 AM 60.8 °F - 46.4 °F 59% 30.07 in 10.0 mi WNW 9.2 mph 16.1 mph N/A   Clear
10:15 AM 60.8 °F - 46.4 °F 59% 30.06 in 10.0 mi WNW 9.2 mph - N/A   Clear
10:35 AM 62.6 °F - 46.4 °F 55% 30.05 in 10.0 mi WNW 5.8 mph - N/A   Clear
10:55 AM 62.6 °F - 44.6 °F 52% 30.03 in 10.0 mi NW 8.1 mph - N/A   Clear
11:15 AM 62.6 °F - 44.6 °F 52% 30.02 in 10.0 mi West 9.2 mph - N/A   Clear
11:35 AM 62.6 °F - 46.4 °F 55% 30.01 in 10.0 mi WNW 9.2 mph - N/A   Scattered Clouds
11:55 AM 62.6 °F - 46.4 °F 55% 30.00 in 10.0 mi West 12.7 mph 17.3 mph N/A   Scattered Clouds
12:15 PM 62.6 °F - 42.8 °F 48% 29.99 in 10.0 mi NW 10.4 mph 17.3 mph N/A   Scattered Clouds
12:35 PM 64.4 °F - 41.0 °F 42% 29.99 in 10.0 mi NW 11.5 mph 20.7 mph N/A   Clear
12:55 PM 64.4 °F - 41.0 °F 42% 29.98 in 10.0 mi NW 12.7 mph 18.4 mph N/A   Clear
1:15 PM 64.4 °F - 41.0 °F 42% 29.97 in 10.0 mi WNW 11.5 mph 23.0 mph N/A   Scattered Clouds
1:35 PM 64.4 °F - 37.4 °F 37% 29.97 in 10.0 mi NW 12.7 mph 20.7 mph N/A   Clear
1:55 PM 64.4 °F - 37.4 °F 37% 29.97 in 10.0 mi NW 11.5 mph 23.0 mph N/A   Clear
2:15 PM 64.4 °F - 35.6 °F 34% 29.96 in 10.0 mi NW 12.7 mph 19.6 mph N/A   Clear
2:35 PM 64.4 °F - 33.8 °F 32% 29.96 in 10.0 mi NW 15.0 mph 20.7 mph N/A   Clear
2:55 PM 64.4 °F - 35.6 °F 34% 29.97 in 10.0 mi NW 11.5 mph 19.6 mph N/A   Clear
3:15 PM 64.4 °F - 35.6 °F 34% 29.98 in 10.0 mi NW 8.1 mph 17.3 mph N/A   Clear
3:35 PM 64.4 °F - 33.8 °F 32% 29.98 in 10.0 mi NW 10.4 mph - N/A   Clear
3:55 PM 64.4 °F - 33.8 °F 32% 29.98 in 10.0 mi NW 10.4 mph 18.4 mph N/A   Clear
4:15 PM 62.6 °F - 33.8 °F 34% 29.99 in 10.0 mi NW 8.1 mph - N/A   Clear
4:35 PM 62.6 °F - 35.6 °F 37% 29.99 in 10.0 mi NW 8.1 mph - N/A   Clear
5:15 PM 59.0 °F - 35.6 °F 42% 30.01 in 10.0 mi NW 3.5 mph - N/A   Clear
5:35 PM 59.0 °F - 37.4 °F 45% 30.02 in 10.0 mi WNW 3.5 mph - N/A   Clear
5:55 PM 57.2 °F - 37.4 °F 48% 30.03 in 10.0 mi Calm Calm - N/A   Clear
6:15 PM 55.4 °F - 39.2 °F 54% 30.04 in 10.0 mi NW 3.5 mph - N/A   Clear
6:35 PM 50.0 °F - 39.2 °F 66% 30.05 in 10.0 mi Calm Calm - N/A   Clear
6:55 PM 50.0 °F - 41.0 °F 71% 30.05 in 10.0 mi Calm Calm - N/A   Clear
7:15 PM 50.0 °F - 42.8 °F 76% 30.05 in 10.0 mi West 3.5 mph - N/A   Scattered Clouds
7:35 PM 51.8 °F - 41.0 °F 67% 30.06 in 10.0 mi Calm Calm - N/A   Clear
7:55 PM 46.4 °F - 41.0 °F 81% 30.07 in 10.0 mi Calm Calm - N/A   Clear
8:15 PM 46.4 °F - 42.8 °F 87% 30.09 in 10.0 mi Calm Calm - N/A   Scattered Clouds
8:35 PM 53.6 °F - 41.0 °F 62% 30.10 in 10.0 mi North 6.9 mph - N/A   Mostly Cloudy
8:55 PM 53.6 °F - 41.0 °F 62% 30.11 in 10.0 mi North 5.8 mph - N/A   Mostly Cloudy
9:15 PM 53.6 °F - 41.0 °F 62% 30.12 in 10.0 mi North 6.9 mph - N/A   Mostly Cloudy
9:35 PM 53.6 °F - 41.0 °F 62% 30.12 in 10.0 mi North 3.5 mph - N/A   Scattered Clouds
9:55 PM 51.8 °F - 41.0 °F 67% 30.12 in 10.0 mi North 3.5 mph - N/A   Clear
10:15 PM 51.8 °F - 41.0 °F 67% 30.13 in 10.0 mi North 5.8 mph - N/A   Clear
10:35 PM 51.8 °F - 39.2 °F 62% 30.13 in 10.0 mi North 3.5 mph - N/A   Clear
10:55 PM 50.0 °F - 39.2 °F 66% 30.14 in 10.0 mi North 3.5 mph - N/A   Clear
11:15 PM 50.0 °F - 37.4 °F 62% 30.14 in 10.0 mi North 5.8 mph - N/A   Clear
11:35 PM 50.0 °F - 37.4 °F 62% 30.14 in 10.0 mi North 3.5 mph - N/A   Clear
11:55 PM 48.2 °F - 37.4 °F 66% 30.15 in 10.0 mi Calm Calm - N/A   Clear